Time,TemperatureF,DewpointF,PressureIn,WindDirection,WindDirectionDegrees,WindSpeedMPH,WindSpeedGustMPH,Humidity,HourlyPrecipIn,Conditions,Clouds,dailyrainin,SoftwareType,DateUTC
2013-03-08 00:00:00,32.7,27.2,30.33,WNW,296,0.0,9.0,80,0.00,,,0.01,VWS V14.01,2013-03-08 05:00:00,
2013-03-08 00:02:00,32.7,27.2,30.33,NW,304,3.0,3.0,80,0.00,,,0.00,VWS V14.01,2013-03-08 05:02:00,
2013-03-08 00:07:00,32.6,27.1,30.33,West,261,0.0,3.0,80,0.00,,,0.00,VWS V14.01,2013-03-08 05:07:00,
2013-03-08 00:12:00,32.7,27.2,30.33,WNW,302,3.0,3.0,80,0.00,,,0.00,VWS V14.01,2013-03-08 05:12:00,
2013-03-08 00:17:00,32.7,27.2,30.33,NW,310,1.0,5.0,80,0.00,,,0.00,VWS V14.01,2013-03-08 05:17:00,
2013-03-08 00:23:00,32.7,27.5,30.33,NW,321,4.0,7.0,81,0.00,,,0.00,VWS V14.01,2013-03-08 05:23:00,
2013-03-08 00:28:00,32.8,27.3,30.33,NW,311,3.0,7.0,80,0.00,,,0.00,VWS V14.01,2013-03-08 05:28:00,
2013-03-08 00:33:00,32.8,27.3,30.33,NNW,329,8.0,11.0,80,0.00,,,0.00,VWS V14.01,2013-03-08 05:33:00,
2013-03-08 00:38:00,32.8,27.3,30.33,WNW,302,7.0,11.0,80,0.00,,,0.00,VWS V14.01,2013-03-08 05:38:00,
2013-03-08 00:43:00,32.8,27.0,30.33,NW,307,7.0,11.0,79,0.00,,,0.00,VWS V14.01,2013-03-08 05:43:00,
2013-03-08 00:48:00,32.8,27.0,30.33,NNW,345,5.0,11.0,79,0.00,,,0.00,VWS V14.01,2013-03-08 05:48:00,
2013-03-08 00:53:00,32.8,27.0,30.33,NNW,331,4.0,11.0,79,0.00,,,0.00,VWS V14.01,2013-03-08 05:53:00,
2013-03-08 00:58:00,32.7,26.6,30.33,NW,320,8.0,11.0,78,0.00,,,0.00,VWS V14.01,2013-03-08 05:58:00,
2013-03-08 01:03:00,32.7,26.6,30.33,NNW,333,6.0,11.0,78,0.00,,,0.00,VWS V14.01,2013-03-08 06:03:00,
2013-03-08 01:08:00,32.7,26.6,30.33,NNE,13,4.0,11.0,78,0.00,,,0.00,VWS V14.01,2013-03-08 06:08:00,
2013-03-08 01:13:00,32.7,26.6,30.33,North,355,8.0,11.0,78,0.00,,,0.00,VWS V14.01,2013-03-08 06:13:00,
2013-03-08 01:18:00,32.7,26.6,30.33,NNW,332,5.0,12.0,78,0.00,,,0.00,VWS V14.01,2013-03-08 06:18:00,
2013-03-08 01:23:00,32.6,26.8,30.33,NNW,331,2.0,12.0,79,0.00,,,0.00,VWS V14.01,2013-03-08 06:23:00,
2013-03-08 01:29:00,32.6,26.8,30.33,NNW,337,2.0,12.0,79,0.00,,,0.00,VWS V14.01,2013-03-08 06:29:00,
2013-03-08 01:34:00,32.5,26.7,30.33,NNW,341,3.0,7.0,79,0.00,,,0.00,VWS V14.01,2013-03-08 06:34:00,
2013-03-08 01:39:00,32.4,26.6,30.33,North,355,3.0,9.0,79,0.00,,,0.00,VWS V14.01,2013-03-08 06:39:00,
2013-03-08 01:44:00,32.4,26.6,30.33,NW,321,3.0,9.0,79,0.00,,,0.00,VWS V14.01,2013-03-08 06:44:00,
2013-03-08 01:49:00,32.4,26.6,30.34,NW,320,8.0,9.0,79,0.00,,,0.00,VWS V14.01,2013-03-08 06:49:00,
2013-03-08 01:54:00,32.4,26.6,30.34,NNW,327,5.0,12.0,79,0.00,,,0.00,VWS V14.01,2013-03-08 06:54:00,
2013-03-08 01:59:00,32.3,26.5,30.34,NW,307,5.0,12.0,79,0.00,,,0.00,VWS V14.01,2013-03-08 06:59:00,
2013-03-08 02:04:00,32.3,26.5,30.34,NW,315,4.0,12.0,79,0.00,,,0.00,VWS V14.01,2013-03-08 07:04:00,
2013-03-08 02:09:00,32.3,26.5,30.34,NW,321,4.0,12.0,79,0.00,,,0.00,VWS V14.01,2013-03-08 07:09:00,
2013-03-08 02:14:00,32.2,26.4,30.34,NW,324,7.0,13.0,79,0.00,,,0.00,VWS V14.01,2013-03-08 07:14:00,
2013-03-08 02:19:00,32.2,26.4,30.34,NNW,327,5.0,13.0,79,0.00,,,0.00,VWS V14.01,2013-03-08 07:19:00,
2013-03-08 02:24:00,32.1,26.3,30.34,NW,311,7.0,14.0,79,0.00,,,0.00,VWS V14.01,2013-03-08 07:24:00,
2013-03-08 02:30:00,32.1,26.3,30.34,North,355,5.0,5.0,79,0.00,,,0.00,VWS V14.01,2013-03-08 07:30:00,
2013-03-08 02:35:00,32.0,26.2,30.34,NW,315,5.0,12.0,79,0.00,,,0.00,VWS V14.01,2013-03-08 07:35:00,
2013-03-08 02:40:00,31.9,26.4,30.34,NW,304,3.0,12.0,80,0.00,,,0.00,VWS V14.01,2013-03-08 07:40:00,
2013-03-08 02:45:00,31.9,26.4,30.34,NW,311,5.0,12.0,80,0.00,,,0.00,VWS V14.01,2013-03-08 07:45:00,
2013-03-08 02:50:00,31.8,26.4,30.34,NW,313,5.0,12.0,80,0.00,,,0.00,VWS V14.01,2013-03-08 07:50:00,
2013-03-08 02:55:00,31.7,26.5,30.34,NW,312,7.0,12.0,81,0.00,,,0.00,VWS V14.01,2013-03-08 07:55:00,
2013-03-08 03:00:00,31.7,26.5,30.34,NNW,336,5.0,8.0,81,0.00,,,0.00,VWS V14.01,2013-03-08 08:00:00,
2013-03-08 03:05:00,31.6,26.5,30.34,NW,325,6.0,10.0,81,0.00,,,0.00,VWS V14.01,2013-03-08 08:05:00,
2013-03-08 03:10:00,31.6,26.5,30.34,NW,309,2.0,10.0,81,0.00,,,0.00,VWS V14.01,2013-03-08 08:10:00,
2013-03-08 03:15:00,31.5,26.4,30.33,NNW,332,4.0,11.0,81,0.00,,,0.00,VWS V14.01,2013-03-08 08:15:00,
2013-03-08 03:20:00,31.5,26.4,30.34,WNW,302,7.0,13.0,81,0.00,,,0.00,VWS V14.01,2013-03-08 08:20:00,
2013-03-08 03:25:00,31.5,26.4,30.34,WNW,293,8.0,13.0,81,0.00,,,0.00,VWS V14.01,2013-03-08 08:25:00,
2013-03-08 03:30:00,31.4,25.6,30.35,NW,312,7.0,13.0,79,0.00,,,0.00,VWS V14.01,2013-03-08 08:30:00,
2013-03-08 03:35:00,31.4,25.6,30.34,North,350,9.0,14.0,79,0.00,,,0.00,VWS V14.01,2013-03-08 08:35:00,
2013-03-08 03:40:00,31.4,25.4,30.34,NW,313,11.0,14.0,78,0.00,,,0.00,VWS V14.01,2013-03-08 08:40:00,
2013-03-08 03:46:00,31.4,25.4,30.35,NW,315,17.0,17.0,78,0.00,,,0.00,VWS V14.01,2013-03-08 08:46:00,
2013-03-08 03:51:00,31.4,25.0,30.34,WNW,303,9.0,17.0,77,0.00,,,0.00,VWS V14.01,2013-03-08 08:51:00,
2013-03-08 03:56:00,31.3,24.9,30.34,West,263,4.0,17.0,77,0.00,,,0.00,VWS V14.01,2013-03-08 08:56:00,
2013-03-08 04:01:00,31.2,25.1,30.34,NW,311,7.0,10.0,78,0.00,,,0.00,VWS V14.01,2013-03-08 09:01:00,
2013-03-08 04:06:00,31.0,25.0,30.34,WNW,290,3.0,10.0,78,0.00,,,0.00,VWS V14.01,2013-03-08 09:06:00,
2013-03-08 04:11:00,31.0,24.6,30.34,NW,304,7.0,12.0,77,0.00,,,0.00,VWS V14.01,2013-03-08 09:11:00,
2013-03-08 04:16:00,30.9,24.5,30.34,NW,313,5.0,12.0,77,0.00,,,0.00,VWS V14.01,2013-03-08 09:16:00,
2013-03-08 04:21:00,30.8,24.8,30.34,NW,304,3.0,12.0,78,0.00,,,0.00,VWS V14.01,2013-03-08 09:21:00,
2013-03-08 04:26:00,30.7,24.4,30.34,WNW,300,6.0,12.0,77,0.00,,,0.00,VWS V14.01,2013-03-08 09:26:00,
2013-03-08 04:31:00,30.6,24.3,30.35,WSW,257,11.0,12.0,77,0.00,,,0.00,VWS V14.01,2013-03-08 09:31:00,
2013-03-08 04:36:00,30.7,24.4,30.35,WNW,296,11.0,13.0,77,0.00,,,0.00,VWS V14.01,2013-03-08 09:36:00,
2013-03-08 04:41:00,30.7,24.4,30.36,NW,320,4.0,16.0,77,0.00,,,0.00,VWS V14.01,2013-03-08 09:41:00,
2013-03-08 04:46:00,30.7,24.4,30.37,NW,304,10.0,16.0,77,0.00,,,0.00,VWS V14.01,2013-03-08 09:46:00,
2013-03-08 04:51:00,30.7,24.4,30.36,WNW,302,5.0,16.0,77,0.00,,,0.00,VWS V14.01,2013-03-08 09:51:00,
2013-03-08 04:56:00,30.8,24.5,30.36,NW,321,6.0,16.0,77,0.00,,,0.00,VWS V14.01,2013-03-08 09:56:00,
2013-03-08 05:01:00,30.8,24.5,30.36,WNW,298,6.0,8.0,77,0.00,,,0.00,VWS V14.01,2013-03-08 10:01:00,
2013-03-08 05:06:00,30.8,24.8,30.37,NW,304,6.0,11.0,78,0.00,,,0.00,VWS V14.01,2013-03-08 10:06:00,
2013-03-08 05:11:00,30.8,24.5,30.37,NNW,329,12.0,13.0,77,0.00,,,0.00,VWS V14.01,2013-03-08 10:11:00,
2013-03-08 05:16:00,30.8,24.5,30.37,WNW,301,9.0,13.0,77,0.00,,,0.00,VWS V14.01,2013-03-08 10:16:00,
2013-03-08 05:22:00,30.8,24.5,30.37,WNW,296,5.0,13.0,77,0.00,,,0.00,VWS V14.01,2013-03-08 10:22:00,
2013-03-08 05:27:00,30.8,24.5,30.38,NW,320,7.0,13.0,77,0.00,,,0.00,VWS V14.01,2013-03-08 10:27:00,
2013-03-08 05:32:00,30.8,24.5,30.38,WNW,298,7.0,10.0,77,0.00,,,0.00,VWS V14.01,2013-03-08 10:32:00,
2013-03-08 05:37:00,30.7,24.4,30.38,WNW,292,16.0,16.0,77,0.00,,,0.00,VWS V14.01,2013-03-08 10:37:00,
2013-03-08 05:42:00,30.7,24.7,30.38,NW,321,7.0,16.0,78,0.00,,,0.00,VWS V14.01,2013-03-08 10:42:00,
2013-03-08 05:47:00,30.7,24.7,30.38,WNW,295,8.0,16.0,78,0.00,,,0.00,VWS V14.01,2013-03-08 10:47:00,
2013-03-08 05:52:00,30.6,24.6,30.38,WNW,292,9.0,18.0,78,0.00,,,0.00,VWS V14.01,2013-03-08 10:52:00,
2013-03-08 05:57:00,30.6,24.6,30.38,NW,325,7.0,18.0,78,0.00,,,0.00,VWS V14.01,2013-03-08 10:57:00,
2013-03-08 06:03:00,30.5,24.5,30.39,NW,311,3.0,13.0,78,0.00,,,0.00,VWS V14.01,2013-03-08 11:03:00,
2013-03-08 06:08:00,30.4,24.4,30.38,NNW,343,6.0,14.0,78,0.00,,,0.00,VWS V14.01,2013-03-08 11:08:00,
2013-03-08 06:13:00,30.3,24.3,30.39,NW,305,8.0,14.0,78,0.00,,,0.00,VWS V14.01,2013-03-08 11:13:00,
2013-03-08 06:18:00,30.3,24.6,30.39,NNW,331,7.0,14.0,79,0.00,,,0.00,VWS V14.01,2013-03-08 11:18:00,
2013-03-08 06:23:00,30.2,24.2,30.40,WNW,298,7.0,14.0,78,0.00,,,0.00,VWS V14.01,2013-03-08 11:23:00,
2013-03-08 06:28:00,30.2,24.2,30.40,WNW,300,6.0,14.0,78,0.00,,,0.00,VWS V14.01,2013-03-08 11:28:00,
2013-03-08 06:33:00,30.3,24.6,30.40,WNW,294,5.0,13.0,79,0.00,,,0.00,VWS V14.01,2013-03-08 11:33:00,
2013-03-08 06:38:00,30.2,24.5,30.40,West,277,6.0,13.0,79,0.00,,,0.00,VWS V14.01,2013-03-08 11:38:00,
2013-03-08 06:43:00,30.2,24.2,30.40,WNW,294,2.0,13.0,78,0.00,,,0.00,VWS V14.01,2013-03-08 11:43:00,
2013-03-08 06:48:00,30.2,24.5,30.40,WNW,299,4.0,13.0,79,0.00,,,0.00,VWS V14.01,2013-03-08 11:48:00,
2013-03-08 06:53:00,30.2,24.5,30.40,NW,310,4.0,13.0,79,0.00,,,0.00,VWS V14.01,2013-03-08 11:53:00,
2013-03-08 06:58:00,30.3,24.6,30.41,WNW,295,5.0,13.0,79,0.00,,,0.00,VWS V14.01,2013-03-08 11:58:00,
2013-03-08 07:03:00,30.3,24.6,30.41,NW,304,1.0,6.0,79,0.00,,,0.00,VWS V14.01,2013-03-08 12:03:00,
2013-03-08 07:08:00,30.3,24.6,30.41,WNW,286,2.0,10.0,79,0.00,,,0.00,VWS V14.01,2013-03-08 12:08:00,
2013-03-08 07:13:00,30.3,24.6,30.41,WNW,293,2.0,10.0,79,0.00,,,0.00,VWS V14.01,2013-03-08 12:13:00,
2013-03-08 07:18:00,30.3,24.6,30.41,NNW,333,5.0,10.0,79,0.00,,,0.00,VWS V14.01,2013-03-08 12:18:00,
2013-03-08 07:23:00,30.3,24.6,30.42,WNW,292,8.0,10.0,79,0.00,,,0.00,VWS V14.01,2013-03-08 12:23:00,
2013-03-08 07:28:00,30.3,24.6,30.42,NNW,336,3.0,10.0,79,0.00,,,0.00,VWS V14.01,2013-03-08 12:28:00,
2013-03-08 07:33:00,30.4,25.0,30.42,NNW,331,1.0,9.0,80,0.00,,,0.00,VWS V14.01,2013-03-08 12:33:00,
2013-03-08 07:38:00,30.5,25.1,30.42,NW,304,6.0,9.0,80,0.00,,,0.00,VWS V14.01,2013-03-08 12:38:00,
2013-03-08 07:43:00,30.5,25.1,30.42,NW,326,4.0,9.0,80,0.00,,,0.00,VWS V14.01,2013-03-08 12:43:00,
2013-03-08 07:49:00,30.5,25.1,30.42,NW,324,3.0,11.0,80,0.00,,,0.00,VWS V14.01,2013-03-08 12:49:00,
2013-03-08 07:54:00,30.5,25.1,30.43,NW,314,2.0,11.0,80,0.00,,,0.00,VWS V14.01,2013-03-08 12:54:00,
2013-03-08 07:59:00,30.5,25.1,30.43,NW,315,7.0,12.0,80,0.00,,,0.00,VWS V14.01,2013-03-08 12:59:00,
2013-03-08 08:04:00,30.5,25.1,30.43,NNW,327,13.0,13.0,80,0.00,,,0.00,VWS V14.01,2013-03-08 13:04:00,
2013-03-08 08:09:00,30.5,25.4,30.43,NW,316,4.0,13.0,81,0.00,,,0.00,VWS V14.01,2013-03-08 13:09:00,
2013-03-08 08:14:00,30.5,25.1,30.44,NW,317,2.0,13.0,80,0.00,,,0.00,VWS V14.01,2013-03-08 13:14:00,
2013-03-08 08:19:00,30.6,25.5,30.44,NW,306,4.0,13.0,81,0.00,,,0.00,VWS V14.01,2013-03-08 13:19:00,
2013-03-08 08:24:00,30.7,25.6,30.44,WNW,298,4.0,13.0,81,0.00,,,0.00,VWS V14.01,2013-03-08 13:24:00,
2013-03-08 08:29:00,30.8,25.7,30.43,NW,313,4.0,13.0,81,0.00,,,0.00,VWS V14.01,2013-03-08 13:29:00,
2013-03-08 08:34:00,30.8,25.4,30.44,NNW,329,7.0,13.0,80,0.00,,,0.00,VWS V14.01,2013-03-08 13:34:00,
2013-03-08 08:39:00,30.9,25.8,30.44,NW,319,8.0,13.0,81,0.00,,,0.00,VWS V14.01,2013-03-08 13:39:00,
2013-03-08 08:44:00,31.0,25.6,30.44,NW,305,4.0,13.0,80,0.00,,,0.00,VWS V14.01,2013-03-08 13:44:00,
2013-03-08 08:49:00,31.1,25.7,30.44,WNW,293,2.0,13.0,80,0.00,,,0.00,VWS V14.01,2013-03-08 13:49:00,
2013-03-08 08:54:00,31.2,25.8,30.44,WNW,291,9.0,13.0,80,0.00,,,0.00,VWS V14.01,2013-03-08 13:54:00,
2013-03-08 08:59:00,31.4,26.0,30.44,WNW,289,5.0,13.0,80,0.00,,,0.00,VWS V14.01,2013-03-08 13:59:00,
2013-03-08 09:04:00,31.6,25.9,30.43,NW,306,8.0,12.0,79,0.00,,,0.00,VWS V14.01,2013-03-08 14:04:00,
2013-03-08 09:09:00,31.8,26.0,30.43,NW,306,11.0,12.0,79,0.00,,,0.00,VWS V14.01,2013-03-08 14:09:00,
2013-03-08 09:15:00,32.0,26.2,30.44,NW,315,4.0,12.0,79,0.00,,,0.00,VWS V14.01,2013-03-08 14:15:00,
2013-03-08 09:20:00,32.2,26.4,30.44,WNW,295,7.0,13.0,79,0.00,,,0.00,VWS V14.01,2013-03-08 14:20:00,
2013-03-08 09:25:00,32.0,25.9,30.44,NW,309,8.0,15.0,78,0.00,,,0.00,VWS V14.01,2013-03-08 14:25:00,
2013-03-08 09:30:00,32.1,26.3,30.44,WNW,301,7.0,8.0,79,0.00,,,0.00,VWS V14.01,2013-03-08 14:30:00,
2013-03-08 09:35:00,32.2,26.4,30.44,WNW,290,7.0,17.0,79,0.00,,,0.00,VWS V14.01,2013-03-08 14:35:00,
2013-03-08 09:40:00,32.4,26.3,30.44,WNW,294,9.0,17.0,78,0.00,,,0.00,VWS V14.01,2013-03-08 14:40:00,
2013-03-08 09:45:00,32.6,26.5,30.44,NW,304,4.0,17.0,78,0.00,,,0.00,VWS V14.01,2013-03-08 14:45:00,
2013-03-08 09:50:00,33.4,27.3,30.44,NW,319,10.0,17.0,78,0.00,,,0.00,VWS V14.01,2013-03-08 14:50:00,
2013-03-08 09:55:00,33.8,27.7,30.44,WNW,289,6.0,17.0,78,0.00,,,0.00,VWS V14.01,2013-03-08 14:55:00,
2013-03-08 10:00:00,33.8,26.7,30.44,NW,309,9.0,12.0,75,0.00,,,0.00,VWS V14.01,2013-03-08 15:00:00,
2013-03-08 10:05:00,33.9,26.8,30.44,NNW,333,7.0,14.0,75,0.00,,,0.00,VWS V14.01,2013-03-08 15:05:00,
2013-03-08 10:11:00,34.0,27.2,30.44,West,269,6.0,15.0,76,0.00,,,0.00,VWS V14.01,2013-03-08 15:11:00,
2013-03-08 10:16:00,34.3,27.2,30.44,NW,306,11.0,15.0,75,0.00,,,0.00,VWS V14.01,2013-03-08 15:16:00,
2013-03-08 10:21:00,34.2,26.8,30.44,WNW,288,8.0,15.0,74,0.00,,,0.00,VWS V14.01,2013-03-08 15:21:00,
2013-03-08 10:26:00,34.2,27.1,30.44,NW,322,5.0,15.0,75,0.00,,,0.00,VWS V14.01,2013-03-08 15:26:00,
2013-03-08 10:31:00,34.1,27.0,30.44,NW,309,7.0,8.0,75,0.00,,,0.00,VWS V14.01,2013-03-08 15:31:00,
2013-03-08 10:36:00,34.1,26.7,30.44,NW,315,11.0,18.0,74,0.00,,,0.00,VWS V14.01,2013-03-08 15:36:00,
2013-03-08 10:41:00,34.1,26.4,30.44,NNW,343,8.0,18.0,73,0.00,,,0.00,VWS V14.01,2013-03-08 15:41:00,
2013-03-08 10:46:00,34.2,26.8,30.44,NNW,329,11.0,18.0,74,0.00,,,0.00,VWS V14.01,2013-03-08 15:46:00,
2013-03-08 10:51:00,34.1,26.7,30.44,WNW,294,7.0,18.0,74,0.00,,,0.00,VWS V14.01,2013-03-08 15:51:00,
2013-03-08 10:56:00,34.3,26.9,30.43,NW,309,8.0,18.0,74,0.00,,,0.00,VWS V14.01,2013-03-08 15:56:00,
2013-03-08 11:01:00,34.4,26.7,30.44,NW,313,9.0,15.0,73,0.00,,,0.00,VWS V14.01,2013-03-08 16:01:00,
2013-03-08 11:06:00,34.2,26.5,30.44,NW,317,11.0,16.0,73,0.00,,,0.00,VWS V14.01,2013-03-08 16:06:00,
2013-03-08 11:11:00,34.3,26.9,30.44,NNW,327,10.0,16.0,74,0.00,,,0.00,VWS V14.01,2013-03-08 16:11:00,
2013-03-08 11:17:00,34.3,26.6,30.44,WNW,294,9.0,16.0,73,0.00,,,0.00,VWS V14.01,2013-03-08 16:17:00,
2013-03-08 11:22:00,34.6,26.9,30.44,NNW,337,7.0,16.0,73,0.00,,,0.00,VWS V14.01,2013-03-08 16:22:00,
2013-03-08 11:27:00,34.8,27.4,30.44,NNW,335,4.0,16.0,74,0.00,,,0.00,VWS V14.01,2013-03-08 16:27:00,
2013-03-08 11:32:00,34.8,26.7,30.44,NW,318,8.0,15.0,72,0.00,,,0.00,VWS V14.01,2013-03-08 16:32:00,
2013-03-08 11:37:00,34.6,26.9,30.44,NW,319,13.0,18.0,73,0.00,,,0.00,VWS V14.01,2013-03-08 16:37:00,
2013-03-08 11:42:00,34.3,26.6,30.44,NNW,340,10.0,19.0,73,0.00,,,0.00,VWS V14.01,2013-03-08 16:42:00,
2013-03-08 11:47:00,34.5,26.4,30.44,WNW,298,8.0,19.0,72,0.00,,,0.00,VWS V14.01,2013-03-08 16:47:00,
2013-03-08 11:52:00,34.8,27.0,30.44,NW,322,5.0,19.0,73,0.00,,,0.00,VWS V14.01,2013-03-08 16:52:00,
2013-03-08 11:57:00,35.0,27.2,30.44,NW,316,4.0,19.0,73,0.00,,,0.00,VWS V14.01,2013-03-08 16:57:00,
2013-03-08 12:02:00,35.1,26.7,30.43,NW,312,11.0,14.0,71,0.00,,,0.00,VWS V14.01,2013-03-08 17:02:00,
2013-03-08 12:07:00,35.0,26.9,30.43,NW,317,6.0,14.0,72,0.00,,,0.00,VWS V14.01,2013-03-08 17:07:00,
2013-03-08 12:12:00,35.2,27.4,30.43,NW,323,7.0,19.0,73,0.00,,,0.00,VWS V14.01,2013-03-08 17:12:00,
2013-03-08 12:17:00,35.5,27.4,30.43,NW,311,9.0,19.0,72,0.00,,,0.00,VWS V14.01,2013-03-08 17:17:00,
2013-03-08 12:23:00,35.6,27.5,30.43,WNW,296,8.0,19.0,72,0.00,,,0.00,VWS V14.01,2013-03-08 17:23:00,
2013-03-08 12:28:00,35.5,27.0,30.43,NW,308,9.0,19.0,71,0.00,,,0.00,VWS V14.01,2013-03-08 17:28:00,
2013-03-08 12:33:00,35.5,27.4,30.43,NW,315,14.0,14.0,72,0.00,,,0.00,VWS V14.01,2013-03-08 17:33:00,
2013-03-08 12:38:00,35.4,27.0,30.43,NW,308,11.0,17.0,71,0.00,,,0.00,VWS V14.01,2013-03-08 17:38:00,
2013-03-08 12:43:00,35.2,27.1,30.42,NW,321,4.0,17.0,72,0.00,,,0.00,VWS V14.01,2013-03-08 17:43:00,
2013-03-08 12:48:00,35.2,27.1,30.42,WNW,290,9.0,17.0,72,0.00,,,0.00,VWS V14.01,2013-03-08 17:48:00,
2013-03-08 12:53:00,35.3,27.5,30.42,NNW,344,7.0,17.0,73,0.00,,,0.00,VWS V14.01,2013-03-08 17:53:00,
2013-03-08 12:58:00,35.5,27.0,30.42,WNW,293,9.0,17.0,71,0.00,,,0.00,VWS V14.01,2013-03-08 17:58:00,
2013-03-08 13:03:00,35.6,27.5,30.42,NNW,340,5.0,11.0,72,0.00,,,0.00,VWS V14.01,2013-03-08 18:03:00,
2013-03-08 13:08:00,35.5,26.4,30.42,NNW,327,11.0,20.0,69,0.00,,,0.00,VWS V14.01,2013-03-08 18:08:00,
2013-03-08 13:13:00,35.5,26.7,30.41,NNW,328,9.0,20.0,70,0.00,,,0.00,VWS V14.01,2013-03-08 18:13:00,
2013-03-08 13:18:00,35.6,26.5,30.42,NNW,343,8.0,20.0,69,0.00,,,0.00,VWS V14.01,2013-03-08 18:18:00,
2013-03-08 13:23:00,35.9,27.4,30.42,NNW,331,10.0,20.0,71,0.00,,,0.00,VWS V14.01,2013-03-08 18:23:00,
2013-03-08 13:28:00,35.8,27.3,30.41,WNW,282,6.0,20.0,71,0.00,,,0.00,VWS V14.01,2013-03-08 18:28:00,
2013-03-08 13:33:00,35.2,27.4,30.42,WNW,299,5.0,12.0,73,0.00,,,0.00,VWS V14.01,2013-03-08 18:33:00,
2013-03-08 13:38:00,35.1,27.3,30.42,North,355,5.0,12.0,73,0.00,,,0.00,VWS V14.01,2013-03-08 18:38:00,
2013-03-08 13:43:00,35.1,27.3,30.41,North,350,3.0,12.0,73,0.00,,,0.00,VWS V14.01,2013-03-08 18:43:00,
2013-03-08 13:49:00,35.5,28.0,30.41,NW,324,9.0,12.0,74,0.00,,,0.00,VWS V14.01,2013-03-08 18:49:00,
2013-03-08 13:54:00,35.5,27.4,30.41,WNW,302,11.0,14.0,72,0.00,,,0.00,VWS V14.01,2013-03-08 18:54:00,
2013-03-08 13:59:00,35.4,27.0,30.41,NW,324,6.0,14.0,71,0.00,,,0.00,VWS V14.01,2013-03-08 18:59:00,
2013-03-08 14:04:00,35.5,27.4,30.41,NW,318,5.0,12.0,72,0.00,,,0.00,VWS V14.01,2013-03-08 19:04:00,
2013-03-08 14:09:00,35.6,27.8,30.42,NW,307,6.0,12.0,73,0.00,,,0.00,VWS V14.01,2013-03-08 19:09:00,
2013-03-08 14:14:00,35.5,27.7,30.41,NNW,330,5.0,12.0,73,0.00,,,0.00,VWS V14.01,2013-03-08 19:14:00,
2013-03-08 14:19:00,35.6,27.8,30.41,NNW,331,8.0,13.0,73,0.00,,,0.00,VWS V14.01,2013-03-08 19:19:00,
2013-03-08 14:24:00,35.5,27.7,30.41,NW,315,12.0,13.0,73,0.00,,,0.00,VWS V14.01,2013-03-08 19:24:00,
2013-03-08 14:29:00,35.5,27.7,30.41,WNW,303,6.0,13.0,73,0.00,,,0.00,VWS V14.01,2013-03-08 19:29:00,
2013-03-08 14:34:00,35.8,28.0,30.42,NW,306,5.0,7.0,73,0.00,,,0.00,VWS V14.01,2013-03-08 19:34:00,
2013-03-08 14:39:00,35.9,27.8,30.42,NNW,341,7.0,10.0,72,0.00,,,0.00,VWS V14.01,2013-03-08 19:39:00,
2013-03-08 14:44:00,35.8,28.0,30.41,NNW,331,5.0,12.0,73,0.00,,,0.00,VWS V14.01,2013-03-08 19:44:00,
2013-03-08 14:49:00,35.9,27.8,30.42,NNE,15,3.0,12.0,72,0.00,,,0.00,VWS V14.01,2013-03-08 19:49:00,
2013-03-08 14:54:00,35.9,27.8,30.42,NNW,333,6.0,12.0,72,0.00,,,0.00,VWS V14.01,2013-03-08 19:54:00,
2013-03-08 14:59:00,35.7,27.6,30.42,NNW,341,5.0,12.0,72,0.00,,,0.00,VWS V14.01,2013-03-08 19:59:00,
2013-03-08 15:04:00,35.7,27.9,30.42,NW,313,4.0,11.0,73,0.00,,,0.00,VWS V14.01,2013-03-08 20:04:00,
2013-03-08 15:10:00,35.8,27.7,30.42,NW,313,6.0,11.0,72,0.00,,,0.00,VWS V14.01,2013-03-08 20:10:00,
2013-03-08 15:15:00,35.7,27.6,30.42,NW,312,10.0,13.0,72,0.00,,,0.00,VWS V14.01,2013-03-08 20:15:00,
2013-03-08 15:20:00,35.7,27.6,30.43,NW,312,3.0,13.0,72,0.00,,,0.00,VWS V14.01,2013-03-08 20:20:00,
2013-03-08 15:25:00,35.6,27.5,30.43,West,275,8.0,13.0,72,0.00,,,0.00,VWS V14.01,2013-03-08 20:25:00,
2013-03-08 15:30:00,35.6,27.5,30.43,WNW,287,2.0,5.0,72,0.00,,,0.00,VWS V14.01,2013-03-08 20:30:00,
2013-03-08 15:35:00,35.6,27.5,30.43,NW,316,4.0,8.0,72,0.00,,,0.00,VWS V14.01,2013-03-08 20:35:00,
2013-03-08 15:40:00,35.6,27.5,30.43,WNW,292,4.0,9.0,72,0.00,,,0.00,VWS V14.01,2013-03-08 20:40:00,
2013-03-08 15:45:00,35.6,27.5,30.43,NW,311,6.0,9.0,72,0.00,,,0.00,VWS V14.01,2013-03-08 20:45:00,
2013-03-08 15:50:00,35.7,27.6,30.44,NW,308,7.0,9.0,72,0.00,,,0.00,VWS V14.01,2013-03-08 20:50:00,
2013-03-08 15:55:00,35.7,27.9,30.43,NW,317,4.0,9.0,73,0.00,,,0.00,VWS V14.01,2013-03-08 20:55:00,
2013-03-08 16:01:00,35.7,27.6,30.44,WNW,294,5.0,9.0,72,0.00,,,0.00,VWS V14.01,2013-03-08 21:01:00,
2013-03-08 16:06:00,35.7,27.9,30.44,NNW,339,6.0,10.0,73,0.00,,,0.00,VWS V14.01,2013-03-08 21:06:00,
2013-03-08 16:11:00,35.7,27.9,30.44,NW,317,3.0,10.0,73,0.00,,,0.00,VWS V14.01,2013-03-08 21:11:00,
2013-03-08 16:15:00,35.6,28.1,30.44,NW,311,6.0,10.0,74,0.00,,,0.00,VWS V14.01,2013-03-08 21:15:00,
2013-03-08 16:21:00,35.6,27.8,30.44,NW,317,3.0,10.0,73,0.00,,,0.00,VWS V14.01,2013-03-08 21:21:00,
2013-03-08 16:26:00,35.7,27.9,30.44,WNW,294,8.0,10.0,73,0.00,,,0.00,VWS V14.01,2013-03-08 21:26:00,
2013-03-08 16:31:00,35.7,27.9,30.44,WNW,294,3.0,4.0,73,0.00,,,0.00,VWS V14.01,2013-03-08 21:31:00,
2013-03-08 16:36:00,35.9,28.1,30.44,WNW,289,6.0,6.0,73,0.00,,,0.00,VWS V14.01,2013-03-08 21:36:00,
2013-03-08 16:41:00,36.0,27.9,30.44,West,281,5.0,7.0,72,0.00,,,0.00,VWS V14.01,2013-03-08 21:41:00,
2013-03-08 16:46:00,36.0,27.9,30.44,NW,308,4.0,7.0,72,0.00,,,0.00,VWS V14.01,2013-03-08 21:46:00,
2013-03-08 16:51:00,36.1,27.6,30.44,NW,307,2.0,7.0,71,0.00,,,0.00,VWS V14.01,2013-03-08 21:51:00,
2013-03-08 16:56:00,36.2,28.1,30.44,West,259,2.0,7.0,72,0.00,,,0.00,VWS V14.01,2013-03-08 21:56:00,
2013-03-08 17:02:00,36.2,28.1,30.44,WNW,296,4.0,7.0,72,0.00,,,0.00,VWS V14.01,2013-03-08 22:02:00,
2013-03-08 17:07:00,36.2,27.7,30.44,NNW,327,3.0,8.0,71,0.00,,,0.00,VWS V14.01,2013-03-08 22:07:00,
2013-03-08 17:12:00,36.1,28.0,30.44,NW,310,3.0,8.0,72,0.00,,,0.00,VWS V14.01,2013-03-08 22:12:00,
2013-03-08 17:17:00,36.2,28.1,30.44,NW,304,6.0,8.0,72,0.00,,,0.00,VWS V14.01,2013-03-08 22:17:00,
2013-03-08 17:22:00,36.2,27.7,30.44,NW,324,4.0,10.0,71,0.00,,,0.00,VWS V14.01,2013-03-08 22:22:00,
2013-03-08 17:27:00,36.2,28.1,30.44,WNW,286,2.0,10.0,72,0.00,,,0.00,VWS V14.01,2013-03-08 22:27:00,
2013-03-08 17:32:00,36.3,28.1,30.44,NW,310,3.0,7.0,72,0.00,,,0.00,VWS V14.01,2013-03-08 22:32:00,
2013-03-08 17:37:00,36.3,27.8,30.44,WNW,289,4.0,7.0,71,0.00,,,0.00,VWS V14.01,2013-03-08 22:37:00,
2013-03-08 17:42:00,36.3,27.8,30.44,WNW,302,3.0,8.0,71,0.00,,,0.00,VWS V14.01,2013-03-08 22:42:00,
2013-03-08 17:47:00,36.2,28.1,30.44,NW,323,5.0,8.0,72,0.00,,,0.00,VWS V14.01,2013-03-08 22:47:00,
2013-03-08 17:52:00,36.2,27.4,30.45,WNW,295,5.0,8.0,70,0.00,,,0.00,VWS V14.01,2013-03-08 22:52:00,
2013-03-08 17:57:00,36.2,27.7,30.45,NW,318,5.0,8.0,71,0.00,,,0.00,VWS V14.01,2013-03-08 22:57:00,
2013-03-08 18:02:00,36.1,27.6,30.45,WNW,294,3.0,5.0,71,0.00,,,0.00,VWS V14.01,2013-03-08 23:02:00,
2013-03-08 18:07:00,36.1,28.0,30.44,NW,311,6.0,6.0,72,0.00,,,0.00,VWS V14.01,2013-03-08 23:07:00,
2013-03-08 18:12:00,36.0,27.5,30.44,NW,310,2.0,6.0,71,0.00,,,0.00,VWS V14.01,2013-03-08 23:12:00,
2013-03-08 18:17:00,36.0,27.5,30.44,NW,314,0.0,6.0,71,0.00,,,0.00,VWS V14.01,2013-03-08 23:17:00,
2013-03-08 18:22:00,35.9,27.4,30.44,NW,321,2.0,6.0,71,0.00,,,0.00,VWS V14.01,2013-03-08 23:22:00,
2013-03-08 18:27:00,35.7,27.2,30.44,WNW,298,2.0,6.0,71,0.00,,,0.00,VWS V14.01,2013-03-08 23:27:00,
2013-03-08 18:32:00,35.5,27.0,30.44,WNW,302,3.0,6.0,71,0.00,,,0.00,VWS V14.01,2013-03-08 23:32:00,
2013-03-08 18:37:00,35.5,27.0,30.44,WNW,302,1.0,6.0,71,0.00,,,0.00,VWS V14.01,2013-03-08 23:37:00,
2013-03-08 18:42:00,35.3,26.9,30.44,WNW,302,0.0,6.0,71,0.00,,,0.00,VWS V14.01,2013-03-08 23:42:00,
2013-03-08 18:47:00,35.1,27.0,30.45,WNW,285,1.0,6.0,72,0.00,,,0.00,VWS V14.01,2013-03-08 23:47:00,
2013-03-08 18:52:00,35.0,26.6,30.45,West,274,0.0,6.0,71,0.00,,,0.00,VWS V14.01,2013-03-08 23:52:00,
2013-03-08 18:58:00,34.8,26.7,30.45,WNW,287,2.0,6.0,72,0.00,,,0.00,VWS V14.01,2013-03-08 23:58:00,
2013-03-08 19:03:00,34.7,26.6,30.45,WNW,287,2.0,3.0,72,0.00,,,0.00,VWS V14.01,2013-03-09 00:03:00,
2013-03-08 19:08:00,34.5,26.4,30.46,WNW,287,0.0,3.0,72,0.00,,,0.00,VWS V14.01,2013-03-09 00:08:00,
2013-03-08 19:13:00,34.3,26.2,30.45,WNW,287,0.0,3.0,72,0.00,,,0.00,VWS V14.01,2013-03-09 00:13:00,
2013-03-08 19:18:00,34.1,26.4,30.46,WNW,287,0.0,3.0,73,0.00,,,0.00,VWS V14.01,2013-03-09 00:18:00,
2013-03-08 19:23:00,33.9,26.2,30.45,WNW,287,0.0,3.0,73,0.00,,,0.00,VWS V14.01,2013-03-09 00:23:00,
2013-03-08 19:28:00,33.7,26.3,30.46,WNW,287,0.0,3.0,74,0.00,,,0.00,VWS V14.01,2013-03-09 00:28:00,
2013-03-08 19:33:00,33.5,26.1,30.46,WNW,287,0.0,0.0,74,0.00,,,0.00,VWS V14.01,2013-03-09 00:33:00,
2013-03-08 19:38:00,33.4,26.0,30.46,WNW,287,0.0,1.0,74,0.00,,,0.00,VWS V14.01,2013-03-09 00:38:00,
2013-03-08 19:43:00,33.3,25.9,30.46,WNW,287,0.0,1.0,74,0.00,,,0.00,VWS V14.01,2013-03-09 00:43:00,
2013-03-08 19:48:00,33.1,26.0,30.46,WNW,287,0.0,1.0,75,0.00,,,0.00,VWS V14.01,2013-03-09 00:48:00,
2013-03-08 19:53:00,33.0,26.0,30.46,WNW,287,0.0,1.0,75,0.00,,,0.00,VWS V14.01,2013-03-09 00:53:00,
2013-03-08 19:58:00,32.8,25.8,30.46,WNW,287,0.0,1.0,75,0.00,,,0.00,VWS V14.01,2013-03-09 00:58:00,
2013-03-08 20:03:00,32.6,25.6,30.46,WNW,287,0.0,0.0,75,0.00,,,0.00,VWS V14.01,2013-03-09 01:03:00,
2013-03-08 20:08:00,32.4,25.4,30.46,WNW,287,0.0,0.0,75,0.00,,,0.00,VWS V14.01,2013-03-09 01:08:00,
2013-03-08 20:13:00,32.2,25.5,30.47,WNW,287,0.0,0.0,76,0.00,,,0.00,VWS V14.01,2013-03-09 01:13:00,
2013-03-08 20:18:00,32.1,25.4,30.46,WNW,287,0.0,0.0,76,0.00,,,0.00,VWS V14.01,2013-03-09 01:18:00,
2013-03-08 20:24:00,31.9,25.5,30.46,WNW,287,0.0,0.0,77,0.00,,,0.00,VWS V14.01,2013-03-09 01:24:00,
2013-03-08 20:29:00,31.8,25.1,30.46,WNW,287,0.0,0.0,76,0.00,,,0.00,VWS V14.01,2013-03-09 01:29:00,
2013-03-08 20:34:00,31.8,25.4,30.45,WNW,287,0.0,0.0,77,0.00,,,0.00,VWS V14.01,2013-03-09 01:34:00,
2013-03-08 20:39:00,31.8,25.4,30.45,WNW,287,0.0,0.0,77,0.00,,,0.00,VWS V14.01,2013-03-09 01:39:00,
2013-03-08 20:44:00,31.8,25.4,30.45,WNW,287,0.0,0.0,77,0.00,,,0.00,VWS V14.01,2013-03-09 01:44:00,
2013-03-08 20:49:00,31.8,25.4,30.45,WNW,287,0.0,0.0,77,0.00,,,0.00,VWS V14.01,2013-03-09 01:49:00,
2013-03-08 20:54:00,31.9,25.5,30.45,WNW,287,0.0,0.0,77,0.00,,,0.00,VWS V14.01,2013-03-09 01:54:00,
2013-03-08 20:59:00,32.0,25.6,30.45,WNW,287,0.0,1.0,77,0.00,,,0.00,VWS V14.01,2013-03-09 01:59:00,
2013-03-08 21:04:00,31.9,25.2,30.45,WNW,287,1.0,1.0,76,0.00,,,0.00,VWS V14.01,2013-03-09 02:04:00,
2013-03-08 21:09:00,31.8,25.4,30.45,WNW,287,2.0,2.0,77,0.00,,,0.00,VWS V14.01,2013-03-09 02:09:00,
2013-03-08 21:14:00,32.0,25.6,30.45,WNW,287,0.0,2.0,77,0.00,,,0.00,VWS V14.01,2013-03-09 02:14:00,
2013-03-08 21:19:00,32.1,25.4,30.45,WNW,287,0.0,2.0,76,0.00,,,0.00,VWS V14.01,2013-03-09 02:19:00,
2013-03-08 21:24:00,32.1,25.4,30.45,WNW,287,0.0,2.0,76,0.00,,,0.00,VWS V14.01,2013-03-09 02:24:00,
2013-03-08 21:29:00,31.9,25.2,30.45,WNW,287,0.0,2.0,76,0.00,,,0.00,VWS V14.01,2013-03-09 02:29:00,
2013-03-08 21:34:00,31.7,25.0,30.44,WNW,287,0.0,0.0,76,0.00,,,0.00,VWS V14.01,2013-03-09 02:34:00,
2013-03-08 21:39:00,31.4,24.7,30.44,WNW,287,0.0,0.0,76,0.00,,,0.00,VWS V14.01,2013-03-09 02:39:00,
2013-03-08 21:45:00,31.1,24.8,30.44,WNW,287,0.0,0.0,77,0.00,,,0.00,VWS V14.01,2013-03-09 02:45:00,
2013-03-08 21:50:00,30.8,24.8,30.44,WNW,287,0.0,0.0,78,0.00,,,0.00,VWS V14.01,2013-03-09 02:50:00,
2013-03-08 21:55:00,30.7,24.7,30.44,WNW,287,0.0,0.0,78,0.00,,,0.00,VWS V14.01,2013-03-09 02:55:00,
2013-03-08 22:00:00,30.5,24.8,30.44,WNW,287,0.0,0.0,79,0.00,,,0.00,VWS V14.01,2013-03-09 03:00:00,
2013-03-08 22:05:00,30.5,24.8,30.44,WNW,287,0.0,0.0,79,0.00,,,0.00,VWS V14.01,2013-03-09 03:05:00,
2013-03-08 22:10:00,30.4,25.0,30.44,WNW,287,0.0,0.0,80,0.00,,,0.00,VWS V14.01,2013-03-09 03:10:00,
2013-03-08 22:15:00,30.5,25.1,30.44,WNW,287,0.0,0.0,80,0.00,,,0.00,VWS V14.01,2013-03-09 03:15:00,
2013-03-08 22:20:00,30.6,25.2,30.45,WNW,287,0.0,0.0,80,0.00,,,0.00,VWS V14.01,2013-03-09 03:20:00,
2013-03-08 22:25:00,30.9,25.5,30.45,WNW,287,0.0,0.0,80,0.00,,,0.00,VWS V14.01,2013-03-09 03:25:00,
2013-03-08 22:30:00,30.9,25.2,30.45,WNW,287,0.0,0.0,79,0.00,,,0.00,VWS V14.01,2013-03-09 03:30:00,
2013-03-08 22:35:00,30.5,24.8,30.45,WNW,287,0.0,0.0,79,0.00,,,0.00,VWS V14.01,2013-03-09 03:35:00,
2013-03-08 22:40:00,30.1,24.4,30.45,WNW,287,0.0,2.0,79,0.00,,,0.00,VWS V14.01,2013-03-09 03:40:00,
2013-03-08 22:46:00,29.7,24.3,30.45,WNW,287,0.0,2.0,80,0.00,,,0.00,VWS V14.01,2013-03-09 03:46:00,
2013-03-08 22:51:00,29.4,24.3,30.45,WNW,287,0.0,2.0,81,0.00,,,0.00,VWS V14.01,2013-03-09 03:51:00,
2013-03-08 22:56:00,29.2,24.1,30.45,WNW,287,0.0,2.0,81,0.00,,,0.00,VWS V14.01,2013-03-09 03:56:00,
2013-03-08 23:01:00,29.0,23.9,30.45,WNW,287,0.0,0.0,81,0.00,,,0.00,VWS V14.01,2013-03-09 04:01:00,
2013-03-08 23:06:00,28.7,23.6,30.45,WNW,287,0.0,0.0,81,0.00,,,0.00,VWS V14.01,2013-03-09 04:06:00,
2013-03-08 23:11:00,28.5,23.7,30.45,WNW,287,0.0,0.0,82,0.00,,,0.00,VWS V14.01,2013-03-09 04:11:00,
2013-03-08 23:16:00,28.5,24.0,30.45,WNW,287,0.0,0.0,83,0.00,,,0.00,VWS V14.01,2013-03-09 04:16:00,
2013-03-08 23:21:00,28.5,24.0,30.45,WNW,287,0.0,0.0,83,0.00,,,0.00,VWS V14.01,2013-03-09 04:21:00,
2013-03-08 23:26:00,28.6,24.1,30.45,WNW,287,0.0,0.0,83,0.00,,,0.00,VWS V14.01,2013-03-09 04:26:00,
2013-03-08 23:31:00,28.5,24.0,30.45,WNW,287,0.0,0.0,83,0.00,,,0.00,VWS V14.01,2013-03-09 04:31:00,
2013-03-08 23:36:00,28.4,23.9,30.45,WNW,287,0.0,1.0,83,0.00,,,0.00,VWS V14.01,2013-03-09 04:36:00,
2013-03-08 23:41:00,28.5,24.3,30.45,WNW,287,0.0,1.0,84,0.00,,,0.00,VWS V14.01,2013-03-09 04:41:00,
2013-03-08 23:47:00,28.6,24.1,30.46,WNW,287,0.0,1.0,83,0.00,,,0.00,VWS V14.01,2013-03-09 04:47:00,
2013-03-08 23:52:00,28.6,24.1,30.46,WNW,287,0.0,1.0,83,0.00,,,0.00,VWS V14.01,2013-03-09 04:52:00,
2013-03-08 23:57:00,28.5,24.0,30.46,WNW,287,0.0,1.0,83,0.00,,,0.00,VWS V14.01,2013-03-09 04:57:00,